Date,TemperatureHighF,TemperatureAvgF,TemperatureLowF,DewpointHighF,DewpointAvgF,DewpointLowF,HumidityHigh,HumidityAvg,HumidityLow,PressureMaxIn,PressureMinIn,WindSpeedMaxMPH,WindSpeedAvgMPH,GustSpeedMaxMPH,PrecipitationSumIn
2014-1-1,57.6,52.6,48.7,54.0,49.9,44.4,97,91,84,30.33,30.08,6,0,6,0.45
2014-1-2,61.2,55.7,47.1,60.4,54.2,36.5,98,95,68,30.10,29.71,28,1,28,1.22
2014-1-3,46.9,36.3,29.7,36.5,23.9,18.0,82,62,43,30.37,29.90,22,3,24,0.00
2014-1-4,48.6,42.1,33.4,45.3,36.6,25.3,90,81,70,30.35,30.13,16,2,16,0.00
2014-1-5,67.6,54.1,45.7,59.9,50.4,42.8,97,88,73,30.14,29.88,7,0,7,0.00
2014-1-6,63.7,49.1,29.7,62.2,40.1,10.9,97,73,43,30.35,29.80,22,3,24,0.04
2014-1-7,32.9,26.3,19.4,14.0,9.7,6.4,61,49,38,30.54,30.33,16,2,18,0.00
2014-1-8,45.3,36.4,25.9,40.0,28.2,12.9,85,72,55,30.53,30.39,18,2,18,0.00
2014-1-9,55.9,50.1,43.0,54.5,46.3,37.0,96,87,80,30.43,30.28,16,3,16,0.04
2014-1-10,67.8,62.6,52.3,67.3,61.9,51.3,98,97,96,30.29,30.05,7,1,13,1.56
2014-1-11,76.8,66.0,57.9,71.1,64.3,55.4,99,94,75,30.06,29.74,22,1,22,0.57
2014-1-12,63.1,51.6,40.5,55.8,43.2,37.0,95,76,39,30.22,29.88,13,1,13,0.00
2014-1-13,66.4,52.1,37.9,56.3,48.0,36.7,97,87,65,30.20,29.90,11,0,11,0.07
2014-1-14,66.9,57.4,44.4,60.6,54.6,43.0,97,91,65,30.00,29.81,13,1,13,0.62
2014-1-15,63.0,49.4,37.0,47.7,41.5,36.0,97,77,45,30.03,29.86,15,0,15,0.00
2014-1-16,47.7,40.4,31.8,36.1,26.1,16.3,90,59,33,30.13,29.94,18,1,18,0.00
2014-1-17,64.9,48.1,29.7,48.4,39.2,27.9,94,74,46,30.14,29.96,16,1,16,0.00
2014-1-18,51.6,41.8,31.8,30.9,23.9,19.9,83,51,33,30.23,30.01,16,1,17,0.00
2014-1-19,64.2,47.6,31.8,48.0,37.7,26.4,91,70,47,30.12,29.99,16,1,16,0.00
2014-1-20,66.6,48.4,33.1,42.8,36.4,31.8,96,69,32,30.12,29.93,12,0,12,0.00
2014-1-21,68.2,52.8,41.9,57.7,44.1,27.0,99,74,46,29.95,29.64,17,2,23,0.00
2014-1-22,45.0,35.6,28.0,28.0,22.4,18.1,84,60,35,30.18,29.88,11,2,17,0.00
2014-1-23,45.9,35.5,26.8,29.5,23.9,18.0,87,65,39,30.38,30.15,11,0,11,0.00
2014-1-24,40.5,35.2,31.5,28.0,19.4,11.0,84,54,33,30.55,30.31,15,2,15,0.00
2014-1-25,58.3,45.4,32.5,45.7,37.0,27.0,88,73,56,30.32,29.89,17,1,17,0.00
2014-1-26,56.2,46.5,37.8,45.5,38.6,31.8,96,77,41,30.07,29.94,5,0,5,0.00
2014-1-27,72.7,55.9,40.8,54.1,48.7,38.7,95,79,50,29.99,29.84,12,1,12,0.00
2014-1-28,58.9,46.3,34.3,54.0,43.9,32.7,95,91,82,30.11,29.93,17,3,17,0.48
2014-1-29,34.3,32.0,30.0,33.1,30.4,27.7,100,93,91,30.31,30.05,11,1,11,0.63
2014-1-30,38.1,33.7,29.3,30.6,27.7,25.5,91,79,67,30.31,30.14,12,1,12,0.00
2014-1-31,54.1,43.5,34.0,49.1,40.0,28.9,93,87,76,30.24,30.10,7,1,10,0.00
2014-2-1,60.8,53.7,49.8,57.7,51.9,47.1,97,94,87,30.15,30.07,7,1,8,0.00
2014-2-2,73.6,59.6,51.3,64.6,56.7,50.4,100,91,69,30.20,30.05,9,0,9,0.00
2014-2-3,81.3,70.9,62.2,68.4,66.1,60.8,98,86,63,30.08,29.96,12,1,12,0.00
2014-2-4,64.0,55.5,50.7,63.0,54.3,49.6,98,96,93,30.18,30.03,15,3,15,0.03
2014-2-5,79.7,64.1,52.2,71.8,59.3,44.1,99,86,54,30.06,29.89,14,1,14,0.04
2014-2-6,54.9,46.2,38.3,45.3,39.7,32.4,95,78,65,30.29,30.06,15,2,15,0.23
2014-2-7,52.5,47.6,40.8,44.8,42.9,39.2,95,84,70,30.29,30.17,15,2,15,0.04
2014-2-8,57.0,48.5,39.4,48.2,43.9,38.1,95,84,71,30.22,30.09,13,1,13,0.00
2014-2-9,66.2,48.2,36.3,49.5,41.3,35.2,97,80,50,30.18,30.04,10,0,10,0.00
2014-2-10,73.0,54.1,39.9,53.6,46.4,38.1,97,78,42,30.12,30.01,11,1,11,0.00
2014-2-11,56.7,48.2,40.8,50.7,45.1,39.2,95,89,77,30.20,30.02,22,5,22,0.00
2014-2-12,44.2,40.7,37.9,43.2,39.3,36.3,96,94,92,30.18,29.68,24,5,24,0.18
2014-2-13,49.5,40.3,34.3,39.7,36.2,33.3,96,86,67,29.91,29.63,26,2,26,0.04
2014-2-14,65.5,48.3,30.7,45.9,38.4,28.9,95,71,38,30.02,29.83,13,1,13,0.00
2014-2-15,60.6,51.1,39.0,48.6,41.3,31.6,92,72,35,30.12,29.70,22,3,22,0.07
2014-2-16,65.7,46.9,32.2,42.3,35.1,29.8,100,69,31,30.20,30.06,13,0,13,0.00
2014-2-17,68.7,50.7,37.8,50.4,43.4,36.5,97,79,43,30.25,30.15,9,1,11,0.00
2014-2-18,71.2,56.1,44.8,61.0,51.6,43.7,100,86,68,30.23,30.13,11,1,11,0.00
2014-2-19,81.0,64.5,50.2,61.3,55.1,48.7,96,76,39,30.16,30.02,12,1,12,0.00
2014-2-20,77.9,65.2,52.7,66.9,60.7,51.6,99,86,64,30.16,30.03,19,2,19,0.00
2014-2-21,73.0,65.9,61.7,68.9,63.3,59.2,96,91,76,30.06,29.94,19,1,19,0.49
2014-2-22,67.6,59.2,47.5,59.5,45.8,34.0,94,65,34,30.15,30.02,12,1,12,0.00
2014-2-23,66.4,55.3,45.0,61.5,53.8,43.9,97,95,84,30.11,29.94,8,0,8,0.18
2014-2-24,74.3,62.0,52.3,62.4,56.8,50.9,98,85,49,30.08,29.94,9,1,14,0.00
2014-2-25,77.7,62.3,50.5,60.1,53.4,49.6,98,77,38,30.06,29.89,14,0,14,0.00
2014-2-26,57.2,53.0,45.9,55.9,51.7,44.4,96,95,93,29.90,29.73,12,1,12,0.46
2014-2-27,55.9,45.9,38.8,44.6,37.3,29.8,96,75,40,29.98,29.83,9,1,9,0.01
2014-2-28,59.4,45.9,30.0,50.0,38.2,24.3,96,78,31,30.16,29.97,15,2,15,0.00
2014-3-1,65.5,54.1,45.3,55.6,50.5,43.9,95,88,66,30.27,30.10,9,2,10,0.00
2014-3-2,71.8,55.5,41.4,58.5,47.3,39.9,97,78,36,30.24,30.04,9,0,9,0.00
2014-3-3,81.3,65.9,52.2,65.1,59.0,50.7,97,81,51,30.04,29.84,18,2,18,0.01
2014-3-4,61.7,44.5,41.5,56.8,41.7,36.5,96,90,82,30.15,30.00,22,4,22,0.01
2014-3-5,45.3,41.6,37.2,44.2,39.7,35.2,96,93,82,30.14,30.05,9,1,10,0.23
2014-3-6,48.4,45.4,41.2,46.9,44.1,40.1,96,95,94,30.11,29.83,18,4,23,0.72
2014-3-7,48.6,44.1,40.6,44.1,41.6,39.6,96,91,83,30.05,29.78,13,2,13,0.06
2014-3-8,69.3,50.9,36.1,51.1,43.1,34.9,97,77,50,30.17,30.03,11,0,11,0.00
2014-3-9,75.9,58.6,43.3,53.8,48.4,41.7,96,73,41,30.17,30.04,10,1,12,0.00
2014-3-10,79.2,63.1,48.9,56.1,51.7,46.8,94,69,43,30.07,29.89,14,1,15,0.00
2014-3-11,82.8,64.6,52.5,60.6,55.0,50.0,93,74,42,29.94,29.77,13,1,13,0.00
2014-3-12,78.3,66.8,57.0,65.3,59.2,47.3,96,78,57,29.78,29.56,19,2,24,0.16
2014-3-13,60.3,49.7,37.8,46.6,30.7,25.0,85,50,29,30.23,29.77,26,4,26,0.00
2014-3-14,65.1,48.8,32.2,46.9,39.4,30.6,96,74,42,30.34,30.17,13,1,13,0.00
2014-3-15,76.6,59.3,47.3,56.5,50.7,44.4,96,76,40,30.18,30.01,7,1,11,0.00
2014-3-16,76.6,65.5,55.2,64.0,59.8,53.2,96,83,62,30.02,29.69,19,2,19,0.21
2014-3-17,64.9,60.7,54.1,63.9,59.6,53.1,97,96,93,29.77,29.66,15,1,15,0.88
2014-3-18,57.4,49.8,43.9,53.2,47.5,42.6,100,92,80,30.10,29.69,13,2,13,0.09
2014-3-19,65.7,53.6,47.5,56.1,49.7,45.9,95,87,70,30.15,30.03,9,1,10,0.00
2014-3-20,77.7,60.0,46.0,59.4,52.6,44.8,97,79,43,30.09,29.95,11,0,12,0.00
2014-3-21,68.4,57.4,44.6,54.1,49.3,41.5,97,77,46,30.15,30.03,12,1,12,0.00
2014-3-22,74.1,62.8,53.8,67.5,60.1,52.3,97,91,79,30.06,29.93,12,0,12,0.00
2014-3-23,77.4,66.4,55.0,62.2,59.2,54.1,98,80,52,29.99,29.86,15,1,15,0.00
2014-3-24,63.1,55.3,52.5,58.3,48.0,42.8,89,77,66,30.17,29.97,23,6,23,0.00
2014-3-25,70.2,56.9,46.8,55.9,43.7,23.7,96,67,29,30.09,29.75,32,4,32,0.03
2014-3-26,57.7,45.0,34.3,37.6,27.3,19.8,90,52,28,30.32,30.09,8,1,17,0.00
2014-3-27,67.3,53.0,37.0,54.5,46.2,35.2,96,80,57,30.38,30.24,18,1,18,0.00
2014-3-28,73.8,62.9,52.0,66.4,59.6,50.9,97,90,75,30.24,30.01,16,1,16,0.24
2014-3-29,77.5,68.7,64.6,69.8,64.6,55.2,97,88,68,30.02,29.73,16,2,16,0.06
2014-3-30,69.6,58.0,46.4,55.2,43.6,37.4,86,61,32,30.04,29.83,19,3,19,0.00
2014-3-31,73.0,55.5,39.4,47.5,42.2,37.8,95,67,32,30.15,30.04,11,1,11,0.00
2014-4-1,81.5,62.2,46.2,55.0,48.6,43.2,96,68,28,30.18,30.07,12,1,12,0.00
2014-4-2,82.9,65.5,48.0,59.9,53.5,46.4,98,68,37,30.18,30.09,8,1,13,0.00
2014-4-3,84.0,69.3,54.9,66.2,60.6,52.9,95,75,46,30.12,29.98,14,1,14,0.00
2014-4-4,82.0,71.0,60.1,67.3,62.1,58.3,96,76,49,30.03,29.90,21,1,21,0.00
2014-4-5,82.8,69.9,62.1,67.5,63.7,59.7,96,82,56,29.99,29.91,9,0,10,0.04
2014-4-6,67.6,65.0,61.0,66.4,63.6,59.2,97,95,93,30.04,29.93,16,2,17,0.12
2014-4-7,74.8,67.6,63.0,69.6,65.3,61.9,97,93,82,29.95,29.76,14,1,14,1.56
2014-4-8,72.7,66.2,59.7,66.7,62.1,52.7,98,87,68,29.79,29.62,16,1,16,1.25
2014-4-9,72.5,61.0,50.2,52.7,49.8,46.2,93,70,43,30.13,29.74,14,1,16,0.00
2014-4-10,75.6,60.9,46.2,55.6,48.8,43.0,96,69,36,30.29,30.13,13,1,13,0.00
2014-4-11,78.1,65.0,50.9,62.4,55.3,49.6,97,74,45,30.28,30.14,11,0,12,0.00
2014-4-12,79.9,66.9,54.0,66.2,58.1,52.9,97,77,47,30.22,30.12,12,1,12,0.00
2014-4-13,78.6,67.4,56.7,68.2,60.1,55.6,97,80,51,30.18,30.04,16,1,16,0.00
2014-4-14,79.3,70.4,60.6,72.0,66.8,59.5,97,89,75,30.05,29.80,17,2,17,0.00
2014-4-15,72.1,65.3,48.9,70.3,62.2,43.3,97,90,81,29.97,29.66,19,1,19,1.14
2014-4-16,57.0,50.9,43.5,52.0,44.0,37.9,87,77,69,30.27,29.97,23,5,23,0.00
2014-4-17,61.9,58.4,54.0,57.9,54.3,49.8,90,86,82,30.36,30.22,24,6,24,0.00
2014-4-18,64.0,61.3,59.2,62.1,59.6,57.9,97,94,87,30.25,29.91,23,5,23,2.25
2014-4-19,62.8,61.1,56.3,62.2,60.3,55.2,98,97,96,30.03,29.85,14,2,15,0.13
2014-4-20,62.4,56.7,53.1,58.5,54.8,51.8,96,93,86,30.12,30.00,11,1,13,0.00
2014-4-21,75.0,62.0,50.4,63.0,56.4,49.3,97,83,60,30.09,29.95,13,1,13,0.00
2014-4-22,83.7,68.0,52.3,64.2,58.3,51.3,97,74,46,29.96,29.75,13,1,13,0.00
2014-4-23,83.7,70.9,61.3,66.4,62.5,59.5,95,77,48,29.90,29.80,13,1,13,0.00
2014-4-24,82.9,69.2,58.3,69.1,63.5,57.2,97,84,49,29.99,29.88,12,1,12,0.00
2014-4-25,80.1,71.7,63.9,69.3,66.3,63.0,97,84,65,29.95,29.83,15,1,15,0.04
2014-4-26,77.0,69.5,61.3,67.3,62.9,58.8,97,81,57,30.01,29.88,14,1,14,0.00
2014-4-27,84.7,71.8,58.1,70.9,64.9,57.0,97,81,50,30.01,29.90,12,1,12,0.00
2014-4-28,89.1,77.1,69.3,75.0,70.5,67.8,96,81,57,29.94,29.83,11,1,11,0.00
2014-4-29,84.0,75.9,72.1,74.8,71.2,68.0,92,86,67,29.94,29.82,11,1,11,0.00
2014-4-30,82.8,75.4,67.3,73.8,69.0,65.5,95,82,60,30.04,29.89,13,1,13,0.00
2014-5-1,78.4,70.5,66.7,70.9,67.4,65.5,96,90,75,30.00,29.90,7,0,10,0.00
2014-5-2,67.5,63.8,61.2,66.0,59.3,54.5,96,86,71,29.96,29.88,7,0,7,0.02
2014-5-3,73.8,65.2,59.7,61.0,58.3,53.6,95,80,51,30.01,29.89,5,0,9,0.01
2014-5-4,85.6,67.7,51.1,59.9,55.5,50.0,96,69,35,30.06,29.96,12,1,14,0.00
2014-5-5,92.5,73.6,56.1,65.8,59.4,53.8,95,66,33,30.02,29.89,12,0,12,0.00
2014-5-6,91.0,76.0,63.1,67.1,61.6,56.8,87,64,34,30.00,29.91,12,1,12,0.00
2014-5-7,90.1,75.6,60.1,69.6,64.2,58.1,95,71,41,30.11,29.98,13,0,13,0.00
2014-5-8,87.6,76.6,65.7,72.3,69.3,63.5,97,80,51,30.20,30.09,14,1,14,0.00
2014-5-9,85.6,76.6,69.4,74.3,71.0,68.2,96,84,59,30.18,30.06,13,1,13,0.00
2014-5-10,83.3,76.8,72.1,72.9,70.9,69.1,92,82,68,30.13,30.02,16,2,18,0.00
2014-5-11,89.1,75.8,65.1,74.7,69.7,63.3,96,83,57,30.13,30.04,16,0,16,0.00
2014-5-12,85.3,73.7,63.7,74.7,67.9,62.4,97,84,58,30.18,30.09,13,1,13,0.00
2014-5-13,84.2,74.4,65.5,75.2,69.1,64.6,98,85,65,30.14,30.06,12,1,12,0.00
2014-5-14,82.6,75.0,65.3,76.3,71.7,64.4,98,90,78,30.10,29.97,17,2,17,0.04
2014-5-15,79.3,74.6,64.4,75.6,72.6,61.3,97,94,83,30.00,29.83,17,1,17,0.97
2014-5-16,76.3,64.5,52.7,61.2,53.0,47.8,93,69,43,30.08,29.94,17,2,17,0.97
2014-5-17,74.5,62.8,49.6,54.5,50.9,43.0,95,69,36,30.21,30.08,12,1,12,0.00
2014-5-18,81.7,67.4,53.4,63.5,57.8,52.3,97,74,48,30.18,30.09,12,0,12,0.01
2014-5-19,73.9,66.9,59.5,68.0,62.5,58.5,97,86,73,30.20,30.12,17,2,17,0.01
2014-5-20,76.8,67.3,57.0,67.1,56.9,50.2,98,73,41,30.26,30.16,13,1,13,0.00
2014-5-21,88.0,72.8,58.3,70.5,63.8,56.8,97,75,51,30.19,30.04,12,0,12,0.00
2014-5-22,91.8,79.0,67.6,71.8,67.5,63.5,91,70,46,30.08,29.93,17,1,17,0.00
2014-5-23,95.0,81.2,68.4,75.9,70.1,64.4,90,71,45,30.02,29.92,9,0,9,0.00
2014-5-24,84.9,75.3,68.5,73.8,69.5,66.4,94,83,68,30.05,29.95,12,1,12,0.00
2014-5-25,83.1,74.9,67.1,76.5,70.2,65.8,96,86,73,30.16,30.03,12,1,12,0.00
2014-5-26,81.9,74.9,69.4,75.4,71.2,67.3,94,88,78,30.19,30.09,11,0,11,0.08
2014-5-27,86.4,75.7,65.7,75.7,70.5,64.4,96,85,63,30.14,30.01,10,0,11,0.00
2014-5-28,89.1,78.1,71.4,75.2,71.4,69.1,93,81,58,30.05,29.96,11,0,11,0.00
2014-5-29,86.5,77.2,70.9,76.8,72.3,67.6,96,85,66,30.03,29.95,14,0,14,0.01
2014-5-30,84.7,75.6,69.4,76.6,72.1,65.8,96,89,69,30.05,29.96,14,0,14,1.33
2014-5-31,84.6,77.0,69.6,78.3,72.4,67.8,95,86,70,30.05,29.98,13,1,13,0.03
2014-6-1,77.4,73.8,71.8,72.3,67.8,59.7,94,82,61,30.16,30.04,20,4,20,0.00
2014-6-2,81.0,74.3,66.0,68.9,66.0,63.3,94,76,58,30.17,30.09,12,1,13,0.00
2014-6-3,82.2,73.2,63.3,69.6,65.4,61.5,94,78,57,30.10,29.98,10,0,10,0.00
2014-6-4,88.2,76.1,64.6,72.0,67.2,62.8,94,75,54,29.99,29.86,13,1,13,0.00
2014-6-5,92.5,81.0,70.3,76.3,71.1,65.1,87,73,56,29.91,29.79,10,0,10,0.00
2014-6-6,93.6,80.7,70.9,78.6,72.3,68.4,94,77,51,30.01,29.81,15,1,15,1.08
2014-6-7,85.3,76.5,70.0,75.0,71.6,68.2,95,85,65,29.99,29.80,7,1,9,0.22
2014-6-8,90.0,79.6,71.6,77.9,73.5,69.8,94,83,59,29.94,29.83,19,0,19,0.08
2014-6-9,92.8,81.2,72.0,79.2,74.3,69.4,93,81,58,29.92,29.83,12,1,12,0.00
2014-6-10,93.2,82.3,74.8,80.4,74.7,68.2,92,78,59,29.96,29.88,13,1,15,0.00
2014-6-11,87.1,75.1,69.4,77.2,70.7,66.7,92,87,69,29.95,29.83,14,0,14,0.11
2014-6-12,87.3,76.6,69.3,76.1,71.9,66.6,93,86,66,29.93,29.83,15,0,15,0.72
2014-6-13,86.0,76.3,55.9,75.9,71.1,45.9,93,85,65,29.91,29.82,11,0,13,0.00
2014-6-14,89.8,79.1,70.9,76.5,71.6,66.9,90,79,57,30.01,29.91,11,0,13,0.02
2014-6-15,88.3,78.6,73.0,77.5,73.1,69.6,92,84,65,30.09,29.98,10,0,10,0.01
2014-6-16,86.2,79.1,71.4,77.9,73.6,69.6,94,84,67,30.14,30.06,11,1,11,0.00
2014-6-17,86.7,78.8,71.1,78.1,71.9,66.7,95,81,53,30.15,30.07,12,1,12,0.00
2014-6-18,87.3,79.0,72.3,77.2,73.3,70.2,95,83,68,30.13,30.05,11,1,11,0.00
2014-6-19,88.0,80.3,70.9,76.3,71.6,67.3,95,76,59,30.12,30.02,11,1,11,0.00
2014-6-20,91.8,79.8,72.7,80.2,73.2,68.0,94,81,53,30.04,29.91,12,0,12,0.00
2014-6-21,95.4,82.8,71.1,79.2,73.9,68.9,94,76,50,29.95,29.78,15,1,15,0.00
2014-6-22,91.6,77.6,72.9,79.2,72.5,69.4,91,85,63,29.91,29.81,17,1,17,0.10
2014-6-23,88.2,77.5,72.7,77.4,72.4,70.0,93,85,67,30.04,29.88,17,0,17,0.00
2014-6-24,91.6,78.7,71.2,78.4,72.9,68.0,94,84,61,30.08,29.98,25,0,25,0.64
2014-6-25,93.4,81.2,72.1,79.5,74.1,70.3,94,80,57,30.07,29.93,12,1,12,0.00
2014-6-26,93.9,81.9,74.7,77.7,74.0,71.4,92,78,54,30.03,29.90,14,0,14,0.00
2014-6-27,93.4,83.1,74.7,77.9,74.4,72.1,93,77,52,30.03,29.94,15,1,15,0.00
2014-6-28,93.0,81.1,74.5,79.7,74.1,71.1,93,80,55,30.11,30.00,9,1,17,0.12
2014-6-29,88.2,80.0,72.7,77.5,74.6,70.7,94,84,67,30.13,30.02,15,2,15,0.02
2014-6-30,89.1,80.9,73.9,77.5,72.7,61.7,94,78,41,30.07,29.93,12,1,12,0.00
2014-7-1,89.8,80.9,72.0,77.2,73.6,68.7,94,80,51,29.96,29.87,11,1,11,0.00
2014-7-2,88.2,81.6,75.0,78.8,75.2,72.9,94,82,62,29.93,29.85,17,2,17,0.00
2014-7-3,97.0,80.8,74.5,79.0,73.6,66.7,93,80,53,29.96,29.81,32,1,32,0.16
2014-7-4,92.7,81.6,72.0,76.1,71.2,67.5,92,73,46,30.05,29.93,12,0,12,0.00
2014-7-5,83.8,76.0,70.7,78.4,73.1,68.0,94,91,74,30.10,30.02,9,0,10,3.83
2014-7-6,84.2,77.5,73.4,76.5,73.6,71.1,94,88,76,30.09,30.00,12,0,12,0.00
2014-7-7,91.0,80.3,70.9,78.6,73.5,68.5,94,81,58,30.06,29.98,15,0,15,0.00
2014-7-8,94.5,83.1,73.8,78.8,73.9,68.7,90,75,46,30.09,29.98,15,1,15,0.00
2014-7-9,92.5,82.7,74.7,79.3,75.5,71.6,91,79,58,30.06,29.94,13,1,13,0.00
2014-7-10,92.1,79.8,73.0,79.2,73.7,69.8,93,83,60,30.07,29.98,17,0,18,0.03
2014-7-11,89.1,77.6,72.9,78.3,73.7,69.8,94,88,67,30.13,30.04,12,0,14,0.36
2014-7-12,80.8,76.9,74.3,75.2,73.6,71.8,94,90,80,30.16,30.07,9,0,9,0.01
2014-7-13,88.2,78.6,73.2,79.0,74.6,71.2,94,88,71,30.12,30.01,10,0,10,0.03
2014-7-14,92.5,82.9,77.0,80.6,76.2,71.2,93,81,61,30.06,29.92,14,1,14,0.00
2014-7-15,91.8,79.5,75.2,79.7,74.1,71.1,93,84,61,29.96,29.83,13,0,13,0.13
2014-7-16,87.3,77.9,73.6,77.7,74.1,71.8,94,88,70,29.87,29.78,13,0,13,0.39
2014-7-17,88.3,78.9,72.5,75.4,72.2,66.7,94,81,52,29.99,29.85,8,0,8,0.01
2014-7-18,86.9,79.1,72.1,77.5,73.1,70.3,94,82,65,30.07,29.98,11,1,11,0.00
2014-7-19,86.5,78.4,73.0,78.6,74.4,70.5,94,88,75,30.06,29.98,8,0,8,0.01
2014-7-20,91.6,80.1,73.4,79.3,74.6,71.6,94,84,61,30.04,29.95,14,0,14,0.74
2014-7-21,88.5,77.6,73.2,78.6,74.3,70.5,94,90,68,30.06,29.96,7,0,12,3.30
2014-7-22,88.2,78.2,45.5,79.0,73.7,43.9,94,87,68,30.06,29.96,9,0,9,0.01
2014-7-23,86.7,81.0,58.1,78.6,75.8,52.5,93,85,76,30.04,29.94,10,0,10,0.00
2014-7-24,93.7,84.0,75.7,78.8,76.0,73.2,92,78,57,29.98,29.87,13,0,13,0.00
2014-7-25,93.9,83.5,76.6,80.6,76.0,73.4,92,79,57,30.01,29.91,8,1,11,0.00
2014-7-26,93.4,83.7,76.3,81.3,77.2,73.0,92,81,64,30.02,29.91,11,0,12,0.00
2014-7-27,95.0,85.7,77.2,80.6,77.2,74.7,93,77,57,30.01,29.89,12,0,12,0.00
2014-7-28,96.6,87.3,79.0,82.0,78.1,75.9,91,75,56,29.92,29.79,16,0,16,0.00
2014-7-29,93.6,83.2,74.7,77.9,72.1,64.4,92,72,40,29.89,29.82,11,0,11,0.00
2014-7-30,86.7,79.0,72.3,77.4,73.7,68.4,93,84,68,29.94,29.88,11,0,11,0.05
2014-7-31,91.8,82.1,72.5,78.3,74.0,70.0,94,78,51,29.96,29.89,10,0,10,0.00
2014-8-1,91.4,80.8,75.9,80.1,76.3,73.4,93,86,63,29.95,29.88,14,1,14,0.71
2014-8-2,89.8,80.1,74.3,80.6,76.4,71.2,94,89,71,29.98,29.91,12,0,12,0.82
2014-8-3,85.1,79.0,73.9,78.1,75.3,72.0,94,89,74,29.99,29.91,16,2,16,1.29
2014-8-4,82.6,78.1,49.8,78.6,75.2,46.6,94,91,83,29.94,29.88,13,2,14,1.29
2014-8-5,81.0,73.8,49.5,75.4,70.6,47.3,93,90,81,29.99,29.93,3,0,3,0.02
2014-8-6,95.4,84.0,75.7,79.0,75.3,69.8,93,77,46,30.00,29.90,12,0,12,0.00
2014-8-7,96.3,83.6,73.8,80.6,75.7,70.9,92,78,48,29.96,29.86,11,0,11,0.00
2014-8-8,94.8,83.0,75.7,80.2,76.4,73.2,93,81,58,30.02,29.91,12,0,12,0.00
2014-8-9,93.4,79.6,74.7,80.8,75.4,70.9,94,88,63,30.01,29.94,17,0,17,0.52
2014-8-10,90.7,78.9,73.8,80.6,75.1,70.9,94,89,64,30.00,29.91,11,0,11,1.20
2014-8-11,90.1,79.4,74.1,80.1,75.4,72.3,94,88,67,29.98,29.87,1,0,1,0.01
2014-8-12,91.8,79.0,75.0,80.6,75.5,72.3,94,89,66,29.91,29.82,1,0,1,1.72
2014-8-13,76.8,65.9,55.0,75.0,72.0,52.9,94,93,93,29.88,29.87,1,0,1,0.00
2014-8-16,92.8,87.2,80.1,79.0,76.5,72.7,90,72,53,29.99,29.94,8,0,8,0.00
2014-8-17,94.1,83.6,75.4,79.5,75.2,72.9,93,77,53,30.04,29.94,11,0,11,0.00
2014-8-18,94.1,83.4,76.6,78.6,75.4,72.0,92,78,58,29.99,29.84,16,1,16,0.00
2014-8-19,93.0,80.9,75.6,79.9,74.8,70.9,93,82,61,29.95,29.86,14,0,14,0.00
2014-8-20,95.0,82.7,73.2,80.6,74.8,70.5,93,78,55,30.02,29.91,10,0,10,0.00
2014-8-21,96.6,83.7,72.9,80.1,74.2,69.4,90,75,49,30.07,29.97,10,0,10,0.00
2014-8-22,99.1,84.8,73.9,81.3,76.1,71.4,93,77,49,30.02,29.91,11,0,11,0.00
2014-8-23,99.0,86.3,77.2,81.1,76.8,73.9,90,75,49,29.94,29.78,10,0,10,0.00
2014-8-24,86.4,81.2,76.1,81.1,75.7,72.9,92,84,75,29.90,29.75,21,4,22,0.26
2014-8-25,81.9,78.7,73.0,73.6,71.1,68.0,87,78,69,29.95,29.86,20,4,21,0.00
2014-8-26,84.0,78.6,41.7,75.4,72.5,37.0,93,82,65,29.99,29.92,20,2,21,2.87
2014-8-27,84.9,76.0,68.2,71.4,68.3,65.7,94,79,56,30.00,29.92,12,1,12,0.00
2014-8-28,86.7,75.4,64.8,73.9,69.1,62.8,94,82,64,30.01,29.93,8,0,8,0.00
2014-8-29,90.0,79.2,68.4,77.9,73.1,66.2,94,83,58,30.05,29.96,11,0,11,0.00
2014-8-30,88.7,81.2,73.6,80.2,76.3,71.6,94,86,70,30.12,30.02,14,0,14,0.00
2014-8-31,90.0,81.6,74.8,80.1,76.2,72.3,94,84,67,30.11,30.01,10,0,10,0.00
2014-9-1,93.4,82.0,73.0,79.5,75.5,70.7,94,82,61,30.09,29.98,9,0,9,0.00
2014-9-2,91.8,80.4,74.1,81.0,75.4,71.6,94,86,67,30.06,29.97,7,0,8,0.15
2014-9-3,88.5,79.2,71.2,78.8,74.3,69.4,94,86,68,30.05,29.96,8,0,10,0.00
2014-9-4,88.3,79.1,73.2,77.7,74.3,71.4,94,86,66,30.09,30.02,10,0,10,0.01
2014-9-5,86.4,79.0,75.4,78.1,75.3,73.2,94,89,72,30.09,29.99,7,0,9,0.72
2014-9-6,83.5,77.5,72.9,77.4,74.1,71.1,94,90,78,30.01,29.88,8,0,8,0.41
2014-9-7,82.2,77.2,74.8,77.2,74.7,73.0,95,92,84,29.97,29.88,6,0,8,0.05
2014-9-8,85.6,76.5,73.9,78.6,73.6,72.0,95,91,78,30.04,29.94,7,0,8,0.91
2014-9-9,83.8,76.8,73.2,77.7,74.1,71.8,95,92,81,30.07,29.97,9,0,9,0.02
2014-9-10,86.2,78.0,73.6,78.8,74.8,71.8,95,90,75,30.04,29.96,4,0,7,0.39
2014-9-11,89.4,79.5,72.9,79.0,74.8,71.2,95,86,66,30.03,29.94,8,0,8,0.00
2014-9-12,90.3,80.4,72.9,78.8,74.5,71.2,95,84,60,30.02,29.93,9,0,10,0.00
2014-9-13,90.5,81.5,74.7,79.5,75.9,72.9,95,84,65,30.08,29.95,8,0,8,0.00
2014-9-14,89.4,80.4,73.9,78.8,75.7,72.1,94,86,67,30.12,30.02,8,0,10,0.00
2014-9-15,90.0,79.3,74.1,80.1,75.4,72.3,95,88,66,30.12,30.03,7,0,7,0.24
2014-9-16,84.4,76.6,72.7,77.7,73.8,70.9,95,91,78,30.07,29.88,7,0,7,0.00
2014-9-17,88.2,76.9,70.2,77.2,72.7,67.6,94,88,65,29.91,29.80,20,0,25,0.16
2014-9-18,87.1,76.4,68.9,77.5,72.4,67.5,95,88,68,29.92,29.83,12,0,25,0.73
2014-9-19,82.8,75.2,68.9,76.3,72.2,65.8,95,90,75,30.01,29.89,19,1,22,0.98
2014-9-20,73.8,71.7,67.6,72.0,69.6,65.7,95,93,88,29.98,29.89,12,1,21,1.61
2014-9-21,88.2,73.4,62.6,73.0,66.1,60.8,95,80,47,30.00,29.89,9,0,10,0.00
2014-9-22,90.0,75.8,63.9,74.3,67.6,61.5,94,77,47,30.01,29.91,13,0,13,0.00
2014-9-23,75.6,70.6,65.8,70.9,67.0,63.1,94,88,83,30.09,29.97,16,3,21,0.25
2014-9-24,68.0,63.7,60.3,64.0,60.5,57.6,93,90,86,30.15,30.06,12,1,13,0.00
2014-9-25,75.9,68.1,62.6,70.2,65.0,60.6,96,90,81,30.14,30.03,10,0,10,0.00
2014-9-26,75.9,72.4,70.0,71.2,69.7,67.8,94,91,85,30.07,29.99,10,1,13,0.00
2014-9-27,75.6,72.2,69.3,72.1,69.6,67.5,94,92,88,30.07,30.00,12,1,13,0.00
2014-9-28,82.0,75.8,72.1,76.6,73.0,70.0,94,91,84,30.04,29.93,10,2,13,0.00
2014-9-29,78.1,75.0,72.1,75.9,73.1,70.7,95,94,89,29.96,29.81,12,1,12,1.15
2014-9-30,78.6,71.8,68.2,72.1,69.0,66.4,95,91,78,29.87,29.78,11,1,11,0.01
2014-10-1,80.4,72.0,65.8,71.8,68.4,64.4,95,89,72,29.98,29.84,8,0,9,0.00
2014-10-2,82.4,73.8,67.5,73.8,69.5,65.7,95,87,68,30.06,29.97,12,1,14,0.00
2014-10-3,85.8,74.5,68.5,77.4,71.3,66.7,95,90,71,30.02,29.85,8,0,15,0.32
2014-10-4,77.2,70.8,55.0,72.5,60.9,46.0,95,73,47,29.93,29.77,15,1,17,0.00
2014-10-5,71.4,58.1,45.9,54.3,47.2,42.4,93,71,38,30.04,29.92,8,0,8,0.00
2014-10-6,76.5,62.5,49.6,61.2,54.7,48.0,95,78,46,30.12,30.01,10,0,11,0.00
2014-10-7,82.8,70.3,59.7,72.5,65.1,57.9,95,85,60,30.11,30.01,11,0,11,0.00
2014-10-8,73.8,66.6,64.2,72.0,65.0,62.8,95,94,94,30.13,30.03,3,0,3,0.00
2014-10-9,86.2,79.4,71.1,73.9,72.0,69.1,94,79,63,30.09,30.02,10,1,10,0.00
2014-10-10,86.5,76.7,67.5,77.5,71.8,66.0,95,86,63,30.07,29.98,9,0,9,0.00
2014-10-11,82.6,71.5,66.9,73.9,69.0,65.5,95,92,73,30.06,29.95,7,0,7,0.00
2014-10-12,88.5,75.5,66.9,75.0,69.7,65.3,95,84,48,30.06,29.98,9,0,9,0.00
2014-10-15,76.6,69.2,57.9,71.6,63.3,55.9,95,83,53,29.92,29.83,13,0,13,0.26
2014-10-16,74.5,63.0,53.2,58.8,55.5,51.1,95,79,52,29.91,29.82,21,1,21,0.00
2014-10-17,78.6,63.1,51.4,63.5,56.6,49.8,95,81,52,29.99,29.87,10,0,10,0.00
2014-10-18,79.9,61.5,55.2,66.2,57.5,53.6,95,88,60,29.91,29.87,10,0,10,0.00
2014-10-22,70.2,58.4,50.0,55.8,51.1,48.0,93,79,51,30.03,29.96,9,0,9,0.00
2014-10-23,71.4,57.1,48.0,55.6,49.9,46.4,94,80,45,30.07,29.96,12,0,12,0.00
2014-10-24,73.2,57.6,47.7,56.8,50.9,46.0,95,81,49,30.04,29.93,8,0,8,0.00
2014-10-25,76.3,59.2,47.7,59.5,52.0,46.0,95,80,43,30.01,29.91,8,0,8,0.00
2014-10-26,83.8,64.0,50.0,68.7,57.8,48.4,95,82,52,29.97,29.88,6,0,6,0.01
2014-10-27,86.9,69.1,57.7,67.6,62.2,56.3,95,81,45,30.07,29.96,6,0,7,0.00
2014-10-28,83.1,69.9,59.0,70.2,63.8,57.6,95,83,54,30.15,30.06,7,0,9,0.01
2014-10-29,83.1,70.0,61.2,69.6,65.0,59.7,95,86,53,30.10,29.94,10,0,10,0.00
2014-10-30,77.7,67.7,61.9,67.3,63.8,60.1,95,88,68,29.96,29.85,9,0,9,0.00
2014-10-31,71.8,62.1,54.0,60.4,55.1,46.6,95,80,51,29.86,29.75,9,0,9,0.00
2014-11-1,54.3,49.0,41.2,46.9,37.9,28.8,84,66,52,30.12,29.78,27,2,27,0.01
2014-11-2,59.5,45.3,35.2,42.3,37.1,32.7,93,75,41,30.32,30.12,10,1,10,0.00
2014-11-3,63.0,47.8,34.5,48.9,41.5,32.7,94,81,52,30.43,30.30,12,1,12,0.00
2014-11-4,71.1,56.4,42.1,60.6,52.2,40.1,95,87,68,30.37,30.24,12,1,12,0.01
2014-11-5,77.0,66.1,56.7,69.3,61.4,55.2,95,86,60,30.27,30.14,5,0,6,0.00
2014-11-6,78.6,68.6,59.9,69.4,63.0,58.5,95,83,63,30.15,29.88,11,0,11,0.00
2014-11-7,67.1,55.3,43.0,60.3,44.2,38.5,93,68,45,30.03,29.88,13,1,13,0.00
2014-11-8,67.1,55.3,42.3,57.2,50.5,40.5,94,85,69,30.00,29.88,13,1,13,0.00
2014-11-9,66.2,58.3,53.4,59.0,53.5,48.9,94,84,76,29.96,29.86,13,1,13,0.00
2014-11-10,66.2,57.7,51.3,57.6,52.9,47.7,95,85,66,30.01,29.89,17,1,17,0.00
2014-11-11,77.5,63.2,53.2,63.5,55.3,47.5,92,76,59,29.94,29.85,15,1,16,0.00
2014-11-12,75.4,59.9,45.7,64.0,54.3,43.5,94,83,61,30.03,29.92,4,0,7,0.00
2014-11-13,73.2,63.5,55.0,65.1,59.4,48.6,95,87,74,30.04,29.94,5,0,12,0.00
2014-11-14,56.1,47.8,40.8,48.7,39.0,32.9,89,72,51,30.22,30.00,10,1,14,0.00
2014-11-15,51.6,46.2,38.1,43.9,40.5,34.2,95,81,73,30.33,30.19,14,2,19,0.00
2014-11-16,68.4,55.8,45.5,59.7,51.1,40.5,94,84,72,30.23,30.00,5,0,10,0.00
2014-11-17,75.9,64.3,47.7,70.0,61.4,40.8,95,90,77,30.00,29.74,12,1,18,0.42
2014-11-18,48.4,39.9,30.6,41.0,28.2,23.2,83,64,41,30.36,30.00,11,2,19,0.00
2014-11-19,49.8,35.1,25.9,30.4,23.1,18.0,92,65,31,30.45,30.29,5,0,10,0.00
2014-11-20,63.1,42.0,25.3,41.2,31.8,23.5,93,73,31,30.32,30.18,4,0,10,0.00
2014-11-21,66.4,49.4,35.2,50.5,41.3,33.6,95,77,42,30.36,30.25,9,1,16,0.00
2014-11-22,65.5,59.3,51.1,58.8,55.2,48.4,94,86,75,30.39,30.15,16,3,20,0.06
2014-11-23,73.4,68.0,60.6,71.4,66.2,58.8,95,94,92,30.14,29.80,10,1,12,1.76
2014-11-24,80.8,72.0,63.3,74.3,69.1,61.5,95,91,79,30.00,29.81,10,1,12,0.48
2014-11-25,66.0,62.3,59.0,63.9,60.7,57.6,95,94,90,30.06,29.84,7,1,10,1.14
2014-11-26,60.1,51.1,42.3,57.6,47.1,39.2,95,87,57,30.16,29.81,12,1,17,0.17
2014-11-27,56.7,47.5,38.5,42.3,37.5,34.3,88,70,46,30.31,30.14,13,1,20,0.00
2014-11-28,49.5,40.2,34.2,37.4,33.5,30.4,93,78,56,30.39,30.28,10,1,13,0.00
2014-11-29,63.0,45.5,32.0,49.5,40.4,30.6,100,84,57,30.36,30.26,5,0,7,0.00
2014-11-30,72.3,54.0,41.2,62.2,49.4,39.6,95,86,61,30.37,30.27,4,0,7,0.00
2014-12-1,73.4,59.0,47.1,64.0,54.6,45.7,95,86,67,30.39,30.29,9,0,10,0.00
2014-12-2,74.8,62.2,52.7,68.0,58.9,51.1,95,90,72,30.30,30.19,10,1,12,0.02
2014-12-3,72.0,60.6,55.9,68.2,58.7,54.5,96,94,81,30.27,30.17,6,1,7,0.02
2014-12-4,71.2,61.4,54.7,65.5,58.3,53.4,96,90,71,30.27,30.19,9,2,14,0.00
2014-12-5,62.1,60.5,59.0,60.8,59.1,57.9,96,95,92,30.34,30.25,10,3,12,0.02
2014-12-6,72.9,63.6,57.6,68.7,61.4,56.1,96,93,83,30.25,30.05,3,0,9,0.00
2014-12-7,64.9,57.0,52.3,63.5,52.9,47.3,95,86,78,30.22,30.04,15,4,21,0.00
2014-12-8,53.4,49.4,45.7,48.9,43.3,39.6,86,79,72,30.25,30.10,13,3,20,0.00
2014-12-9,57.4,47.8,40.1,45.1,40.9,36.1,92,77,61,30.10,29.96,9,1,16,0.00
2014-12-10,56.7,44.2,36.3,40.5,37.2,34.2,94,78,51,30.13,30.01,7,0,10,0.00
2014-12-11,57.7,42.2,33.4,40.1,35.9,31.8,94,81,44,30.17,30.05,7,0,11,0.00
2014-12-12,61.2,43.1,30.9,43.3,35.5,29.1,94,78,36,30.27,30.16,5,0,7,0.00
2014-12-13,65.8,45.3,32.5,43.3,36.2,30.9,95,76,32,30.19,30.06,3,0,6,0.01
2014-12-14,70.0,47.4,33.4,46.2,38.7,31.8,95,76,34,30.09,29.99,4,0,7,0.00
2014-12-15,69.3,48.7,35.1,49.3,41.6,33.4,95,80,42,30.11,30.02,4,0,6,0.00
2014-12-16,75.2,57.6,41.4,62.4,52.1,39.9,95,83,59,30.12,29.98,9,0,11,0.01
2014-12-17,64.2,49.8,39.6,47.7,43.5,37.8,98,80,54,30.18,30.06,7,0,7,0.00
2014-12-18,63.3,48.6,40.5,48.0,42.9,38.8,95,83,44,30.18,30.05,6,0,7,0.00
2014-12-19,66.6,51.6,41.7,49.1,44.4,40.1,94,79,44,30.15,30.06,3,0,5,0.00
2014-12-20,59.0,55.2,51.8,55.2,52.6,48.9,94,91,85,30.16,30.08,13,1,14,0.02
2014-12-21,54.9,52.9,51.3,52.7,51.3,49.8,95,94,92,30.16,30.00,12,3,16,0.46
2014-12-22,58.3,53.9,51.4,57.2,52.6,50.0,96,95,95,30.04,29.88,6,1,10,0.36
2014-12-23,62.4,60.0,56.8,61.3,58.9,55.8,96,96,96,29.98,29.82,5,1,9,0.32
2014-12-24,74.5,68.9,60.8,71.4,66.9,59.7,96,93,89,29.85,29.71,9,1,16,0.81
2014-12-25,65.8,52.4,41.7,63.5,46.5,40.1,94,81,61,30.25,29.84,10,1,18,0.00
2014-12-26,63.3,49.3,36.7,54.1,45.6,35.4,95,88,68,30.30,30.22,7,0,10,0.00
2014-12-27,68.4,56.9,48.9,60.4,53.5,47.5,95,89,75,30.30,30.18,8,1,11,0.00
2014-12-28,80.4,64.6,52.0,69.1,60.5,50.5,95,87,67,30.18,30.00,6,0,9,0.00
2014-12-29,73.8,67.3,62.1,68.2,65.0,60.3,95,92,81,30.09,29.96,6,0,11,0.14
2014-12-30,64.8,60.6,52.9,62.6,57.9,50.5,95,91,78,30.33,30.04,13,2,18,0.00
2014-12-31,52.9,46.4,41.9,50.4,43.8,40.3,94,91,86,30.42,30.30,14,2,17,0.00
2015-1-1,56.7,50.7,45.0,51.1,47.1,43.3,94,87,75,30.34,30.23,9,1,11,0.01
2015-1-2,66.4,58.6,52.2,61.2,55.1,50.5,94,88,81,30.30,30.21,7,1,9,0.03